sat.trackr.live / text

‹ back to catalog

YAOGAN-39 05A

NORAD 58557 · 2023-194A

PAYLOAD ACTIVE UNKNOWN

§ Identity

Operator
Country
PRC
Launch date
2023-12-10
Launch site
XICLF
Launch vehicle
Mass (kg)
RCS (m²)

External: N2YO · Heavens-Above · Gunter

§ Orbital elements

Epoch: 2026-05-25T05:21:21.664224Z

Period
94.54 min
Inclination
35.0007°
Eccentricity
0.0005289
Mean motion
15.23101386 rev/d
Perigee alt
492.9 km
Apogee alt
500.1 km
Semi-major
6,874.6 km
B*
2.9080e-4
RAAN
201.8172°
Arg perigee
114.4629°
Mean anomaly
245.6638°
Rev number
13,685

§ Raw data

YAOGAN-39 05A1 58557U 23194A   26145.22316741  .00006998  00000+0  29080-3 0  99962 58557  35.0007 201.8172 0005289 114.4629 245.6638 15.23101386136856

JSON: /api/v1/satellites/58557 · /tle

For live sub-satellite position, see the globe view (requires WebGL).

§ Visibility from observer

Set your observer location to see the next 7 days of passes ≥ 10°. The values pass through the URL so the page stays shareable.

No JS? Fill the form by hand. The geolocation button needs JavaScript.